Wetbulb
59.04 59.71 59.84 59.86 59.68 59.54 59.68 59.88 59.86 60.01 60.19 60.19 60.24 60.28 60.28 60.10 59.03 56.27 54.78 58.73 59.91 66.42 64.56 54.94 55.09 55.50 53.59 51.81 51.72 50.15 45.27 48.20 50.66 53.57 54.78 58.22 58.21 62.42 65.18 61.99 61.63 63.06 63.19 64.45 65.68
58.37 58.96 59.30 59.25 59.31 59.28 59.33 59.53 59.51 59.61 59.61 59.80 60.10 60.05 59.73 59.67 54.44 53.84 62.02 66.79 66.89 67.85 54.74 52.36 52.36 53.12 49.57 49.26 49.24 47.66 46.82 50.64 56.89 58.41 55.89 58.31 58.68 61.87 61.28 60.72 60.57 61.18 62.94 64.32 64.46
57.94 58.37 58.91 59.01 59.21 58.85 59.01 59.14 59.27 59.65 59.71 59.91 59.98 59.79 59.39 58.69 52.82 56.34 68.55 67.96 67.22 64.88 56.18 55.76 54.36 52.91 47.55 48.39 54.98 55.84 52.77 59.14 58.98 60.59 59.61 55.82 57.16 61.68 59.35 57.42 59.77 58.77 60.63 62.16 62.67
57.70 57.99 58.67 58.71 58.60 58.55 58.78 58.98 59.26 59.73 59.87 59.59 59.26 59.37 59.66 55.54 46.01 54.87 68.99 68.33 68.51 60.46 55.25 53.62 52.82 50.23 47.16 49.90 59.45 56.94 60.25 60.30 59.05 60.35 59.58 58.51 59.54 58.27 58.98 58.67 61.06 61.27 61.52 60.86 59.82
57.62 57.60 58.10 58.18 58.03 58.07 58.15 58.68 58.81 59.15 58.89 58.87 59.19 59.69 54.00 50.89 53.59 59.70 70.17 67.72 60.04 55.53 53.11 51.58 50.42 47.74 50.27 59.10 58.59 55.90 57.81 59.96 61.05 59.90 58.92 59.38 57.59 58.42 58.37 59.89 61.22 60.93 60.58 59.77 59.24
57.20 57.41 57.54 57.48 57.57 57.52 57.51 57.55 57.65 57.93 58.30 58.82 59.45 59.76 54.70 48.74 58.30 60.00 58.60 59.04 55.65 53.73 51.95 52.52 50.65 50.67 55.75 54.72 55.44 58.32 57.88 58.44 59.17 58.70 58.71 56.59 57.55 58.22 58.33 59.90 59.24 59.18 58.39 58.63 58.18
57.07 57.04 57.22 57.29 57.37 57.39 57.51 57.04 56.87 57.55 58.60 59.30 60.43 59.60 53.02 50.94 58.44 57.33 58.58 55.05 55.35 55.73 53.33 53.42 52.55 51.82 52.96 54.11 57.45 58.29 53.95 57.12 58.55 58.49 57.54 58.56 54.95 55.14 58.37 58.88 57.57 57.38 57.63 57.15 57.15
56.97 56.89 56.83 57.06 57.22 57.53 57.51 57.33 57.17 58.05 58.89 59.78 60.55 55.70 50.48 58.96 58.97 54.65 54.22 55.56 55.10 54.35 54.04 54.66 52.68 50.38 55.14 56.29 55.59 52.43 52.93 48.26 52.02 56.82 56.57 55.41 48.64 56.51 58.06 56.93 55.68 56.32 56.03 55.38 55.89
56.86 56.52 56.65 56.94 57.10 57.39 57.11 56.90 57.57 58.64 59.38 59.73 55.40 52.39 52.85 62.43 53.23 56.54 55.44 54.96 55.04 55.45 54.52 56.65 51.59 48.74 50.04 49.98 46.93 48.85 44.53 46.12 50.61 55.10 53.46 53.69 52.20 55.63 57.52 56.70 55.33 54.83 54.52 54.26 54.45
56.48 56.25 56.07 56.22 56.83 56.76 56.08 56.21 57.44 57.59 58.87 59.97 59.64 52.21 54.71 55.38 53.69 56.65 56.15 56.64 54.50 53.69 53.02 51.15 47.85 45.10 43.26 46.03 40.16 44.71 45.09 46.79 47.77 51.11 52.04 52.09 51.47 54.11 55.73 56.19 54.63 54.17 53.80 53.96 54.49
56.20 55.99 55.81 56.04 56.20 55.78 53.94 54.87 54.62 52.93 54.39 54.25 54.97 53.80 56.34 57.25 56.31 54.99 56.68 55.12 53.94 51.70 46.75 48.77 44.79 42.16 44.70 46.22 49.69 51.20 48.37 47.67 49.89 53.44 48.14 46.82 48.05 51.62 54.23 55.40 54.02 53.96 54.03 53.72 54.17
55.61 55.73 55.77 55.85 56.03 55.50 52.01 53.86 58.68 55.15 50.72 57.41 58.93 57.38 59.75 57.21 52.55 54.17 56.08 51.31 51.32 47.41 49.26 46.59 44.15 48.17 50.43 53.92 53.03 51.21 48.86 47.33 49.59 51.99 50.61 50.29 49.07 52.77 54.84 54.81 54.64 53.53 53.02 53.69 54.51
54.94 54.98 55.53 55.61 54.83 51.18 51.55 55.68 59.59 57.92 49.78 55.64 57.29 56.17 55.54 55.39 53.67 54.02 54.16 51.95 50.21 47.96 47.81 45.39 48.69 52.83 52.63 50.00 48.99 46.40 45.80 46.22 46.53 49.16 50.49 48.59 47.85 50.84 54.12 55.40 56.36 56.02 55.62 55.81 55.43
54.56 54.62 55.14 55.32 52.16 52.93 54.33 58.36 57.78 56.83 47.28 52.42 52.15 54.94 55.32 54.57 53.39 56.88 55.98 53.45 50.96 48.67 50.43 49.66 52.50 51.86 50.37 49.73 48.98 44.37 49.92 49.45 49.14 45.35 40.89 48.43 41.48 47.22 49.24 51.10 54.35 54.47 54.43 54.09 55.35
54.34 54.74 55.09 54.33 50.81 48.56 55.05 53.26 54.72 56.71 40.31 55.45 51.25 55.88 53.58 51.97 52.99 53.82 56.42 54.28 50.99 52.54 52.43 50.07 51.41 51.27 50.25 50.18 51.23 48.13 51.29 48.41 47.87 43.45 43.20 44.85 42.39 46.67 48.54 49.18 52.23 53.11 53.92 52.71 52.73
54.01 54.49 54.56 52.30 51.03 52.07 53.38 53.57 56.43 48.88 41.93 52.68 51.81 50.61 49.57 50.78 52.51 54.24 55.29 56.56 56.04 54.31 53.47 51.87 55.39 53.56 52.31 54.37 52.88 52.70 48.44 46.10 42.33 40.43 37.30 42.18 41.57 41.48 46.10 49.45 50.71 51.06 51.53 51.30 51.58
53.87 53.70 51.38 56.00 52.73 54.35 54.28 56.29 46.55 42.74 53.97 52.09 48.53 49.99 47.90 48.58 51.17 53.47 53.81 51.28 47.98 44.67 44.76 50.54 51.83 54.34 54.96 51.09 50.99 47.69 41.53 34.14 33.44 33.80 36.37 44.51 41.42 41.23 49.95 52.82 50.35 48.87 49.70 51.71 52.28
52.88 51.73 51.40 53.93 50.66 52.04 54.33 51.06 42.38 50.70 52.43 56.73 56.21 48.63 47.33 53.28 52.96 54.86 53.02 49.14 53.18 50.20 46.09 44.26 44.15 51.88 55.26 51.05 46.60 44.73 41.85 35.57 29.73 30.26 37.38 44.47 40.28 42.91 50.89 52.42 51.81 51.55 50.72 50.88 48.69
51.10 52.22 53.13 57.38 57.19 54.28 51.63 43.94 45.74 51.93 55.77 53.42 52.50 50.50 50.38 53.38 53.69 53.64 51.61 51.18 52.80 51.74 46.17 44.51 46.01 54.21 54.71 51.64 49.28 44.92 41.83 43.35 38.19 39.02 37.78 40.74 45.46 50.45 52.19 51.42 50.76 48.56 50.03 45.61 44.03
53.12 54.09 55.63 59.92 57.43 54.21 48.61 45.30 51.48 58.09 55.64 54.97 50.03 51.86 47.87 49.72 49.90 50.83 50.98 53.13 53.57 54.61 51.93 49.05 42.89 51.61 52.91 53.25 51.06 47.01 47.97 39.95 38.32 32.17 32.19 37.77 38.76 42.06 47.13 48.27 48.03 47.63 46.88 44.12 43.18
55.54 53.81 58.81 59.81 56.14 49.91 44.51 47.53 54.43 55.72 56.89 53.54 51.54 49.99 50.23 50.02 50.93 49.82 50.28 52.74 54.98 54.85 52.55 48.37 44.75 46.17 50.19 46.75 43.71 43.94 42.02 41.92 41.14 39.13 33.47 33.59 38.75 46.62 46.19 47.80 46.99 46.57 46.37 42.76 42.40
55.96 51.02 58.85 54.68 47.36 46.06 46.00 51.82 53.46 55.06 55.87 55.56 53.75 52.12 50.55 50.57 49.98 49.06 48.73 51.22 55.59 54.70 48.83 49.65 44.21 41.56 45.60 51.02 50.19 46.28 43.20 41.27 35.44 35.79 37.43 36.37 39.43 48.11 48.52 47.51 44.72 44.91 43.00 42.22 42.81
51.98 53.28 57.54 55.48 46.55 47.49 51.32 54.58 54.46 53.59 52.55 52.73 51.15 51.66 50.66 49.51 46.50 50.17 50.79 54.41 55.08 53.27 48.77 48.24 42.31 35.35 40.60 44.58 48.19 44.39 45.51 43.40 40.28 38.93 36.54 34.27 37.12 48.60 48.38 45.83 45.57 42.74 42.30 43.19 43.09
54.11 49.48 53.34 51.98 51.34 48.47 47.70 50.26 50.75 54.49 53.13 53.28 52.00 52.54 51.55 50.14 51.34 48.52 49.76 54.88 56.30 54.85 56.88 52.33 44.76 40.91 37.34 42.02 44.82 43.22 44.64 44.15 40.58 36.82 38.18 38.57 41.03 43.53 44.00 43.84 41.95 42.04 42.28 42.68 42.83
54.43 50.05 52.42 47.51 49.31 49.83 48.85 51.49 50.47 50.70 53.60 53.00 52.42 52.53 49.80 45.43 47.71 47.70 51.68 51.62 54.51 55.13 52.05 49.66 43.36 45.23 45.90 47.67 47.03 45.79 44.95 44.44 41.79 41.97 38.29 40.18 39.89 41.82 43.17 42.72 42.41 42.48 42.86 43.36 42.55
51.96 52.16 54.29 51.45 49.35 48.73 48.16 49.99 51.32 52.92 52.60 51.77 50.36 51.25 49.18 45.74 46.52 45.17 48.81 49.99 49.83 51.89 47.84 48.08 42.23 45.20 45.62 47.12 46.66 44.52 44.83 44.52 43.90 43.16 42.00 41.93 39.87 44.50 45.24 44.41 43.07 43.50 43.50 42.26 42.74
54.54 55.14 55.55 51.18 49.37 49.21 48.45 51.53 53.00 53.35 54.26 54.86 52.68 50.70 49.11 50.33 50.83 48.52 48.14 49.76 49.59 49.65 47.47 46.06 43.20 41.82 39.97 47.18 45.52 39.42 44.87 44.88 44.32 44.92 42.39 37.33 39.92 44.62 42.14 42.48 41.36 41.92 42.91 43.88 43.23
MSLP
1017.32 1017.10 1016.97 1016.85 1016.52 1016.51 1016.18 1015.94 1015.84 1015.72 1015.62 1015.38 1015.05 1014.61 1014.17 1013.86 1012.87 1012.47 1011.20 1009.19 1009.23 1009.20 1009.27 1009.24 1009.41 1009.29 1009.61 1009.75 1009.78 1010.15 1012.63 1015.34 1016.59 1017.04 1018.21 1017.56 1017.79 1017.98 1017.58 1017.79 1018.46 1019.41 1019.66 1020.63 1021.31
1017.01 1016.88 1016.71 1016.53 1016.32 1016.18 1015.88 1015.83 1015.75 1015.59 1015.48 1015.31 1014.89 1014.43 1014.06 1013.66 1012.95 1011.25 1008.42 1008.45 1008.73 1009.03 1009.47 1009.27 1009.28 1009.33 1009.45 1009.08 1009.33 1010.54 1012.80 1014.98 1015.36 1015.79 1016.89 1018.08 1018.96 1018.97 1018.95 1018.92 1020.05 1020.54 1021.03 1021.35 1021.85
1016.91 1016.82 1016.64 1016.27 1015.97 1015.78 1015.80 1015.71 1015.52 1015.41 1015.41 1015.13 1014.72 1014.28 1013.93 1013.50 1012.60 1009.43 1007.72 1008.20 1008.48 1009.11 1009.17 1009.03 1008.98 1008.98 1009.20 1009.42 1010.04 1011.07 1013.15 1014.45 1016.13 1015.60 1016.70 1018.50 1019.60 1019.97 1020.45 1021.10 1021.52 1021.76 1021.97 1022.18 1022.54
1016.82 1016.56 1016.17 1015.80 1015.77 1015.72 1015.62 1015.43 1015.35 1015.30 1015.26 1014.92 1014.58 1014.11 1013.59 1013.27 1011.51 1008.26 1007.87 1008.29 1008.69 1008.90 1008.92 1008.86 1009.04 1009.31 1009.48 1010.70 1011.36 1013.14 1014.72 1014.96 1016.16 1016.62 1017.38 1018.75 1019.94 1020.98 1021.36 1022.48 1022.79 1022.94 1023.34 1023.48 1023.58
1016.57 1016.26 1015.89 1015.71 1015.75 1015.53 1015.47 1015.29 1015.17 1015.23 1015.03 1014.72 1014.45 1013.93 1013.22 1012.41 1010.09 1007.70 1007.97 1008.41 1008.65 1008.75 1008.83 1009.01 1009.22 1009.53 1010.52 1012.00 1012.96 1013.59 1015.68 1015.77 1016.02 1016.74 1017.62 1018.50 1020.08 1021.32 1022.42 1023.20 1023.50 1023.82 1023.42 1023.97 1024.00
1016.44 1016.05 1015.83 1015.70 1015.60 1015.41 1015.26 1015.13 1015.06 1015.03 1014.80 1014.54 1014.34 1013.97 1013.37 1011.24 1007.87 1007.72 1007.88 1008.34 1008.46 1008.64 1008.57 1008.76 1009.00 1009.19 1010.50 1011.30 1011.34 1013.75 1014.25 1015.48 1016.13 1017.02 1018.52 1019.46 1020.60 1021.14 1023.19 1023.63 1024.17 1024.61 1024.78 1024.80 1024.83
1016.18 1016.01 1015.70 1015.63 1015.44 1015.20 1015.05 1014.96 1014.85 1014.71 1014.56 1014.37 1014.18 1013.68 1012.90 1009.55 1007.74 1007.82 1007.77 1007.76 1007.66 1008.07 1008.26 1007.74 1007.99 1008.70 1009.98 1011.11 1011.71 1012.78 1014.32 1015.93 1017.23 1017.59 1018.56 1018.77 1021.12 1022.36 1023.80 1024.28 1024.58 1025.38 1026.02 1025.81 1025.37
1016.12 1015.83 1015.60 1015.44 1015.17 1015.02 1014.84 1014.72 1014.54 1014.42 1014.29 1014.14 1013.98 1013.56 1011.53 1007.98 1007.84 1007.94 1007.78 1007.36 1007.13 1007.27 1007.54 1007.01 1007.23 1008.32 1009.38 1010.29 1011.69 1012.40 1013.30 1015.00 1016.31 1016.36 1018.36 1019.86 1022.66 1023.84 1024.26 1024.56 1025.52 1025.39 1025.67 1026.18 1026.11
1015.99 1015.63 1015.43 1015.15 1015.00 1014.76 1014.52 1014.42 1014.24 1014.08 1013.99 1013.98 1013.74 1013.06 1010.46 1007.69 1007.64 1007.16 1007.28 1007.36 1007.25 1006.91 1006.84 1007.03 1007.37 1008.66 1009.40 1010.61 1012.13 1012.94 1013.90 1014.76 1015.56 1016.77 1018.32 1019.29 1022.92 1024.70 1023.64 1023.22 1024.59 1024.98 1025.71 1026.56 1026.67
1015.81 1015.46 1015.28 1014.96 1014.74 1014.38 1014.20 1014.20 1013.81 1013.61 1013.79 1013.52 1013.02 1012.62 1009.57 1007.78 1006.98 1006.84 1006.90 1007.14 1007.62 1007.65 1007.71 1007.71 1008.58 1009.23 1010.34 1011.17 1012.15 1013.24 1014.09 1014.89 1016.06 1018.02 1019.35 1020.89 1023.05 1024.99 1024.27 1024.56 1025.33 1025.31 1025.62 1026.08 1026.35
1015.61 1015.36 1015.04 1014.74 1014.44 1014.32 1013.71 1013.91 1013.85 1013.46 1012.95 1011.63 1010.78 1009.86 1008.50 1007.07 1006.62 1006.93 1006.80 1007.21 1007.54 1007.82 1008.56 1008.71 1009.53 1010.15 1009.72 1010.21 1010.84 1012.46 1013.63 1014.79 1016.92 1018.67 1020.63 1022.65 1023.87 1024.51 1025.24 1025.07 1025.52 1025.85 1025.85 1026.18 1026.25
1015.42 1015.15 1014.75 1014.52 1014.37 1014.10 1013.85 1013.20 1011.41 1011.12 1010.91 1009.57 1009.17 1008.75 1007.61 1007.35 1006.92 1006.84 1006.75 1007.60 1007.79 1008.30 1008.60 1009.47 1009.58 1009.27 1009.69 1009.62 1010.83 1012.20 1013.69 1015.88 1018.66 1019.43 1020.66 1023.21 1024.40 1025.08 1025.23 1025.73 1025.93 1026.01 1026.22 1026.22 1026.21
1015.06 1014.77 1014.64 1014.47 1014.28 1013.92 1013.18 1011.78 1009.69 1010.37 1010.57 1008.55 1007.71 1007.29 1006.62 1006.67 1006.50 1006.34 1006.80 1007.18 1007.76 1008.15 1008.59 1009.29 1008.58 1008.65 1009.04 1009.88 1010.80 1012.01 1012.89 1013.96 1017.08 1019.99 1021.58 1022.21 1024.45 1025.01 1025.32 1025.46 1025.65 1025.64 1025.85 1026.20 1026.39
1014.74 1014.53 1014.41 1014.21 1014.46 1013.02 1011.99 1009.69 1009.85 1010.47 1010.63 1008.90 1007.18 1005.93 1005.74 1006.03 1006.23 1005.59 1006.05 1006.96 1007.47 1007.90 1007.96 1009.06 1008.66 1008.89 1009.43 1009.86 1010.43 1011.48 1011.93 1012.89 1015.49 1017.82 1020.84 1021.90 1024.56 1025.31 1025.58 1025.44 1025.64 1025.99 1026.30 1026.48 1026.22
1014.55 1014.29 1014.09 1014.06 1013.58 1012.47 1010.28 1009.87 1009.94 1010.27 1010.51 1008.31 1006.69 1005.08 1005.57 1006.06 1006.06 1005.63 1005.52 1006.26 1007.37 1008.13 1008.45 1010.05 1009.61 1009.39 1009.79 1010.24 1010.36 1011.53 1011.85 1012.88 1014.49 1016.88 1019.12 1021.83 1023.08 1024.97 1025.45 1025.44 1025.93 1026.21 1026.45 1026.30 1026.33
1014.26 1014.02 1013.89 1013.68 1013.41 1010.98 1010.20 1009.80 1009.81 1010.77 1009.92 1008.32 1006.56 1005.96 1006.17 1006.25 1006.35 1005.95 1006.18 1006.46 1007.43 1008.77 1009.62 1009.99 1009.64 1009.75 1009.93 1010.26 1010.82 1011.41 1012.16 1013.62 1015.46 1017.70 1020.78 1022.38 1022.89 1024.73 1024.93 1025.11 1025.75 1026.19 1026.44 1026.40 1026.54
1013.87 1013.75 1013.75 1012.74 1011.67 1010.32 1010.27 1010.35 1011.12 1010.96 1009.86 1008.65 1007.21 1006.77 1006.84 1007.10 1006.87 1007.04 1008.04 1008.63 1009.16 1010.04 1010.93 1010.74 1010.46 1010.10 1010.00 1010.52 1011.15 1011.86 1013.66 1015.99 1017.85 1019.81 1022.44 1022.72 1023.40 1024.36 1024.38 1024.44 1025.10 1025.81 1026.37 1026.63 1026.74
1013.54 1013.45 1012.58 1011.64 1010.47 1010.91 1011.34 1011.54 1011.30 1010.39 1009.42 1008.19 1007.49 1007.44 1007.72 1007.91 1008.65 1008.74 1009.60 1010.56 1010.62 1010.97 1011.67 1011.94 1011.34 1010.88 1010.94 1011.30 1012.05 1013.28 1014.80 1016.78 1018.64 1020.55 1022.67 1023.03 1024.05 1024.51 1024.47 1024.79 1025.43 1026.04 1026.56 1027.21 1027.72
1013.06 1013.01 1012.57 1010.37 1010.36 1011.22 1012.19 1012.33 1011.20 1009.83 1008.95 1008.11 1007.66 1008.16 1008.60 1008.55 1009.08 1009.98 1011.19 1011.93 1012.10 1012.04 1012.56 1012.79 1012.48 1011.83 1011.57 1011.81 1012.42 1013.96 1015.10 1016.26 1018.10 1020.58 1022.60 1024.06 1024.45 1024.24 1024.71 1025.34 1025.78 1026.58 1027.18 1028.04 1028.31
1012.86 1012.76 1011.85 1009.33 1010.17 1011.61 1012.81 1012.26 1010.66 1009.33 1008.80 1008.36 1008.95 1009.22 1009.62 1010.00 1010.36 1010.98 1012.10 1012.98 1012.86 1012.79 1012.72 1013.64 1013.40 1013.06 1012.53 1012.57 1013.54 1014.30 1015.35 1016.82 1018.78 1021.18 1023.50 1024.71 1024.78 1024.62 1024.94 1025.45 1026.10 1026.70 1027.64 1028.42 1028.87
1012.81 1012.62 1010.29 1009.48 1010.48 1012.28 1013.07 1011.81 1010.18 1008.72 1008.33 1009.11 1009.70 1010.39 1010.92 1010.96 1011.37 1012.27 1013.25 1013.53 1013.46 1013.56 1013.51 1014.27 1014.58 1014.72 1013.88 1014.51 1014.71 1015.23 1016.27 1017.74 1019.40 1021.47 1022.99 1024.53 1024.63 1024.14 1024.64 1025.42 1026.15 1026.79 1027.57 1028.57 1029.12
1013.22 1012.83 1010.37 1010.03 1011.73 1012.65 1012.59 1011.02 1009.87 1009.39 1008.96 1009.67 1010.16 1010.82 1011.46 1011.78 1012.44 1013.11 1013.67 1013.98 1013.76 1013.99 1014.75 1015.35 1015.94 1016.34 1015.91 1015.46 1015.22 1015.74 1016.94 1018.14 1020.20 1022.33 1023.50 1024.14 1024.63 1023.62 1024.44 1025.46 1026.31 1027.18 1028.06 1028.75 1029.30
1014.22 1013.13 1010.75 1010.56 1012.58 1012.95 1011.83 1010.98 1010.09 1010.04 1010.38 1010.64 1011.27 1011.61 1011.85 1012.88 1013.63 1013.81 1014.35 1014.62 1014.35 1014.83 1015.52 1015.99 1017.22 1017.50 1016.91 1016.34 1016.07 1016.56 1017.36 1018.58 1020.12 1021.75 1023.57 1024.35 1024.93 1024.43 1024.93 1025.93 1026.60 1027.54 1028.42 1029.04 1029.52
1014.52 1014.22 1013.06 1012.58 1012.86 1012.76 1012.28 1011.48 1010.96 1010.59 1011.08 1011.63 1012.21 1012.38 1013.32 1014.15 1014.03 1014.93 1015.15 1015.00 1014.87 1015.14 1015.77 1016.37 1017.74 1018.13 1018.10 1017.27 1017.20 1017.91 1018.53 1019.17 1020.46 1022.71 1023.79 1024.22 1024.78 1025.41 1025.72 1026.40 1027.20 1028.10 1028.84 1029.30 1029.72
1014.86 1015.42 1014.83 1014.87 1013.70 1013.26 1012.38 1012.16 1011.97 1012.07 1012.40 1012.50 1013.62 1013.83 1014.45 1015.63 1015.58 1015.70 1015.46 1015.40 1015.54 1015.70 1016.25 1017.27 1018.50 1018.49 1018.40 1018.30 1018.29 1018.92 1019.76 1020.16 1021.05 1022.56 1023.67 1024.59 1025.04 1025.42 1025.75 1026.60 1027.47 1028.35 1029.16 1029.49 1029.80
1015.91 1016.08 1015.45 1015.03 1014.19 1013.71 1013.49 1013.69 1013.43 1013.72 1013.84 1014.63 1014.92 1015.32 1015.17 1016.12 1016.28 1016.17 1015.92 1015.94 1016.21 1016.60 1017.15 1018.00 1018.92 1019.19 1019.87 1019.55 1019.59 1020.31 1020.87 1021.30 1022.24 1023.07 1023.95 1024.74 1025.55 1025.94 1026.72 1027.43 1028.32 1029.04 1029.32 1029.53 1029.72
1016.65 1016.32 1016.30 1016.33 1015.28 1014.75 1014.78 1014.33 1014.59 1014.19 1015.53 1015.24 1015.37 1015.54 1015.88 1016.20 1016.11 1015.91 1016.12 1016.42 1016.69 1017.38 1018.24 1019.03 1019.85 1020.53 1021.36 1020.93 1020.70 1021.96 1022.57 1022.76 1023.34 1023.85 1024.37 1025.01 1025.84 1026.58 1027.59 1028.20 1028.91 1029.28 1029.43 1029.52 1029.69
Wind_Speed
10 9 9 9 8 10 9 10 11 11 11 12 13 14 13 14 16 3 5 11 4 9 4 2 2 6 3 4 6 4 5 6 8 10 8 3 3 2 2 9 15 9 19 17 11
11 10 9 9 8 9 9 10 11 11 11 11 12 13 12 13 3 5 12 7 7 9 2 2 5 4 2 5 2 6 6 4 5 5 7 8 2 3 5 14 12 12 18 17 16
10 10 9 9 9 9 10 11 10 11 11 11 13 13 11 8 4 7 3 10 7 6 1 2 4 1 2 5 6 5 6 14 8 20 15 5 4 8 8 8 9 10 14 15 16
10 10 9 9 10 10 10 11 10 11 10 11 13 12 13 1 1 3 6 7 3 1 2 5 7 8 6 9 6 22 14 9 12 15 11 7 6 12 14 9 13 13 13 15 14
10 11 10 10 10 10 11 11 10 10 9 10 11 10 2 4 9 3 5 6 3 2 2 1 5 2 11 22 29 30 12 13 16 16 13 17 12 12 16 14 13 13 16 14 12
9 10 10 10 11 11 11 10 10 10 9 9 9 8 2 3 5 6 7 4 2 3 2 6 3 3 8 4 5 13 21 21 17 17 17 16 15 5 12 14 13 13 12 11 11
10 10 10 10 11 11 11 10 9 10 9 7 6 3 2 13 4 6 8 5 4 5 2 5 5 8 4 6 6 16 16 15 17 18 9 23 10 11 14 14 15 12 10 10 9
10 10 10 10 11 11 10 10 10 10 7 7 2 1 8 7 3 3 4 7 6 6 7 7 2 5 7 5 2 3 7 4 8 10 5 4 8 16 16 15 7 8 8 6 5
11 10 10 10 11 11 9 10 11 8 5 5 1 1 11 11 3 8 7 5 6 8 6 4 3 5 4 4 5 8 3 3 7 6 8 8 14 14 12 14 12 10 8 4 3
10 10 10 10 11 10 10 8 4 7 3 4 5 5 5 3 3 4 6 6 5 7 6 4 6 4 4 4 6 5 3 1 4 4 21 22 22 12 6 7 9 8 8 6 5
11 10 10 10 10 9 7 1 4 2 0 9 5 5 5 4 5 5 6 2 2 5 1 4 3 5 12 8 5 5 4 6 7 8 21 18 17 11 7 9 7 7 7 6 4
11 10 10 9 9 7 1 1 6 5 9 10 12 7 8 5 3 6 6 5 3 7 1 5 7 12 4 9 15 6 4 6 16 24 24 15 11 6 8 7 6 7 6 7 3
10 8 9 7 4 1 2 7 7 8 1 10 6 5 6 8 6 8 10 4 6 6 7 9 14 3 8 6 7 3 3 1 16 17 20 25 9 5 5 5 5 7 4 5 4
10 9 7 5 2 2 5 5 7 7 6 8 2 7 3 3 5 6 9 5 3 10 2 5 4 11 8 6 6 8 5 7 16 9 7 9 6 3 0 2 10 8 6 5 5
10 8 6 4 2 1 8 7 9 5 2 6 6 4 2 4 3 3 3 3 4 8 10 2 5 8 9 3 5 2 2 5 4 8 6 7 7 3 4 3 6 7 6 6 6
10 7 3 1 0 9 9 9 4 7 3 7 4 3 2 2 4 4 2 5 4 8 6 2 2 4 2 2 7 1 9 10 6 5 6 8 5 3 2 6 6 5 7 7 6
10 7 3 3 5 4 6 6 7 3 1 6 6 5 4 4 2 3 7 9 4 6 6 5 6 5 5 7 8 12 9 5 7 7 2 4 8 4 4 6 7 9 7 4 4
10 3 8 5 6 8 5 7 4 3 5 5 7 5 4 3 10 10 6 7 10 6 4 5 9 6 6 1 2 5 7 6 2 3 4 6 3 2 1 8 7 6 6 4 7
3 1 2 7 4 4 7 4 5 3 4 6 5 6 3 7 8 8 5 6 5 6 5 4 4 4 5 6 5 4 4 2 4 5 6 1 1 3 7 7 8 8 6 7 7
3 2 4 4 7 6 6 4 4 3 5 11 6 8 7 3 4 6 4 6 5 10 2 5 1 4 5 8 9 7 3 6 5 3 3 2 1 1 8 9 7 8 7 7 5
4 4 6 6 7 7 3 6 5 3 6 6 4 5 5 5 4 3 2 3 6 4 8 3 4 7 7 4 3 7 5 6 5 4 5 4 2 5 6 8 10 7 6 9 7
3 3 3 5 5 1 2 4 3 7 9 6 6 6 3 5 6 6 5 5 8 4 5 4 4 2 1 4 4 4 4 5 6 1 3 4 1 4 11 9 8 8 9 7 7
2 3 5 7 2 3 6 4 5 8 7 5 7 5 7 7 5 7 6 4 8 4 2 3 4 3 8 8 8 7 4 5 6 4 2 5 3 5 10 8 5 11 8 7 6
4 4 6 6 1 2 3 1 6 5 6 7 5 9 10 12 12 4 4 1 1 3 5 7 3 6 6 4 3 9 10 6 8 5 0 1 8 4 5 7 8 8 7 6 6
4 1 3 2 5 4 1 2 9 7 7 9 10 6 6 5 5 5 5 2 5 6 5 5 3 4 8 18 19 15 13 12 9 5 6 3 5 8 8 8 8 9 6 6 6
4 4 6 3 4 5 7 7 16 9 7 6 12 9 11 6 3 3 3 3 1 3 2 3 1 2 9 16 20 17 16 13 13 9 7 6 3 5 5 9 10 10 6 6 6
3 3 5 5 6 7 4 3 4 8 9 5 7 6 9 5 4 3 3 3 2 6 2 3 3 3 4 2 8 11 9 11 10 9 2 5 2 6 6 8 6 6 5 6 5
Wind_Direction
306 309 302 294 308 299 303 303 302 305 307 315 317 307 314 319 307 166 255 218 158 147 134 290 270 289 89 225 215 129 74 129 154 141 217 202 178 293 29 76 48 52 65 79 65
316 312 304 299 297 294 303 303 303 307 313 315 308 305 316 328 315 257 242 179 190 151 127 343 312 320 280 246 116 86 94 63 184 91 123 120 3 75 91 87 79 69 67 66 65
315 304 293 295 299 308 302 299 305 310 311 312 304 306 314 327 320 254 268 165 192 142 274 258 267 268 303 25 348 355 107 112 74 115 119 115 73 17 111 70 59 89 82 71 62
309 308 307 311 309 301 300 301 304 307 309 309 301 309 313 242 304 279 176 157 134 229 337 347 28 356 341 71 70 91 65 93 122 108 110 107 77 72 63 77 85 84 78 77 67
315 313 312 312 302 303 296 298 303 301 307 297 302 328 355 354 253 233 167 110 162 175 223 60 1 22 55 105 95 105 113 119 128 120 125 125 113 97 82 91 79 79 73 74 74
316 314 311 307 303 297 296 298 300 297 292 292 308 313 7 303 231 162 148 138 222 146 268 135 201 184 105 75 112 154 132 128 139 139 123 108 125 90 108 100 80 64 64 69 71
322 310 310 305 299 296 295 296 292 288 284 293 307 330 324 240 301 178 163 209 184 181 265 225 177 85 159 107 155 158 121 132 153 151 131 129 72 90 105 80 78 68 54 55 63
315 313 307 303 302 293 291 290 281 276 286 285 282 102 252 254 224 241 221 290 267 248 204 276 6 109 132 157 147 210 73 40 168 147 92 321 98 103 103 85 74 91 76 63 43
315 313 305 304 293 289 293 283 272 274 247 271 351 150 273 310 176 219 192 236 314 306 307 328 33 136 27 93 25 1 140 179 20 63 104 95 130 111 114 127 159 132 119 105 56
317 312 301 297 290 296 289 265 279 306 202 208 261 328 273 254 212 206 201 225 254 288 0 5 42 21 33 89 243 223 153 318 159 67 89 99 108 103 125 135 146 145 140 148 162
318 306 297 290 293 299 321 202 16 337 61 201 208 228 274 253 110 211 222 292 294 33 312 325 78 236 256 216 161 149 113 208 75 99 69 93 115 120 150 180 140 126 151 162 183
320 305 294 294 293 278 255 219 217 157 307 226 236 255 256 259 169 269 117 163 158 238 299 9 241 240 259 92 113 115 95 94 58 86 97 117 118 138 172 158 157 152 160 164 150
319 308 289 290 283 311 209 232 267 61 262 298 219 206 231 155 216 228 153 176 212 252 205 202 244 229 102 96 107 125 134 54 128 89 123 126 89 100 74 107 141 157 162 135 97
322 308 290 262 285 238 257 264 287 124 56 285 307 269 271 129 260 201 193 161 243 238 162 103 33 78 61 39 81 42 324 38 127 163 185 207 119 96 131 39 117 88 93 120 122
323 311 285 234 323 332 244 346 324 71 35 277 231 231 98 161 229 303 175 175 33 14 83 310 44 54 65 66 94 166 343 32 58 71 114 37 89 96 198 93 116 123 164 182 152
321 311 236 170 109 240 315 306 61 49 260 317 223 197 321 347 255 235 28 27 105 81 34 79 227 85 181 90 47 115 39 35 45 85 55 320 115 310 243 155 156 179 210 165 202
311 286 202 319 235 6 343 34 46 108 300 290 229 167 200 279 193 99 60 30 47 58 20 342 333 325 57 25 21 56 50 2 4 28 83 295 54 215 227 188 170 173 183 173 160
304 250 226 228 264 27 31 45 71 234 245 254 256 269 124 347 26 44 55 45 23 54 73 59 0 14 0 33 121 77 125 142 260 187 175 15 81 215 155 106 138 142 126 136 63
297 214 278 259 200 101 65 50 221 247 303 319 60 66 52 19 109 79 66 17 40 23 89 60 340 359 18 29 68 335 27 173 126 64 85 120 89 120 115 130 121 119 125 95 108
106 34 268 256 116 63 70 242 252 215 315 48 79 25 24 19 65 77 46 331 19 24 72 346 342 14 349 48 23 101 237 27 8 87 95 70 289 190 156 171 139 146 135 142 116
63 42 257 131 70 53 158 239 280 293 77 82 71 60 33 47 90 87 58 33 12 347 73 42 84 314 42 13 102 17 24 57 107 80 141 150 259 229 177 161 158 163 127 141 133
80 51 303 57 50 63 211 215 329 22 47 62 70 63 79 40 32 61 69 39 348 15 29 14 125 77 188 301 112 94 107 104 114 36 62 113 359 137 133 154 149 144 124 127 133
97 258 335 87 124 309 303 284 81 62 23 46 48 32 14 29 80 95 70 17 30 58 74 332 8 40 345 354 358 72 21 108 99 90 351 113 179 121 129 161 165 130 132 132 120
80 37 330 40 181 199 290 302 113 67 53 64 65 65 59 34 33 82 125 113 100 68 63 90 77 150 174 224 143 62 46 42 101 76 32 77 129 136 178 144 117 118 121 120 120
39 279 187 313 335 2 50 66 55 40 37 32 16 45 112 63 41 38 32 127 33 343 44 91 64 46 58 82 72 63 73 63 76 156 98 163 131 196 185 144 145 130 133 134 136
87 47 353 312 327 44 25 8 82 39 49 19 96 60 65 85 127 19 31 38 138 353 48 30 311 37 63 78 69 65 61 72 77 69 83 115 74 105 89 89 114 128 141 114 115
332 345 101 313 346 69 325 74 138 104 18 65 120 82 43 348 276 240 199 231 216 147 162 86 109 71 128 106 56 43 64 76 64 39 85 64 122 118 78 96 115 136 125 118 130